Flag for United Kingdom Weather past 2 weeks in Cardiff, Wales, United Kingdom

Now
64 °F

Scattered clouds.


Feels Like: 64 °F
Forecast: 56 / 66 °F
Wind: 9 mph from Southeast

Location: Wales Airport

Current Time: Jul 5, 2015 at 10:43:57 AM

Latest Report: Jul 5, 2015 at 10:20 AM


Visibility: N/A

Pressure: 30.01 "Hg

Humidity: 73%

Dew point: 55 °F

Location of CardiffLocation

Historic Weather in Cardiff — Graph

°F

Cardiff temperature yesterday

Maximum temperature yesterday: 72 °F (at 2:20 PM)
Minimum temperature yesterday: 57 °F (at 11:50 PM)
Average temperature yesterday: 65 °F

Past Weeks' High & Low Weather Summary

 TemperatureHumidityPressure
High81 °F (Jun 30, 2:50 PM)100% (Jun 20, 6:20 PM)30.27 "Hg (Jun 20, 6:20 PM)
Low46 °F (Jun 23, 2:50 AM)42% (Jun 30, 4:50 PM)29.80 "Hg (Jul 1, 4:50 AM)
Average62 °F80%30.07 "Hg
* Reported Jun 20 9:20 AM — Jul 5 9:20 AM, Cardiff, Weather by CustomWeather, © 2015

Note: Actual official high and low records may vary slightly from our data, if they occured in-between our weather recording intervals... More about our weather records

Advertising

Cardiff weather history for previous 24 hours

 ConditionsComfort  
Time TempWeatherWind HumidityBarometerVisibility
9:20 AM
Sun, Jul 5
61 °FBroken clouds.10 mph88%30.04 "HgN/A
8:50 AM59 °FScattered clouds.7 mph94%30.04 "HgN/A
8:20 AM59 °FBroken clouds.9 mph94%30.04 "HgN/A
7:50 AM59 °FPartly sunny.7 mph94%30.04 "HgN/A
7:20 AM59 °FScattered clouds.8 mph94%30.07 "HgN/A
6:50 AM57 °FPartly sunny.10 mph94%30.07 "HgN/A
6:20 AM59 °FPartly sunny.8 mph88%30.07 "HgN/A
5:50 AM57 °FPassing clouds.6 mph94%30.07 "HgN/A
5:20 AM57 °FPassing clouds.7 mph94%30.07 "HgN/A
4:50 AM55 °FCool.9 mph94%30.07 "HgN/A
4:20 AM55 °FClear.9 mph94%30.07 "Hg10 mi
3:50 AM55 °FClear.8 mph94%30.09 "Hg10 mi
3:20 AM55 °FClear.8 mph88%30.09 "Hg10 mi
2:50 AM57 °FClear.3 mph82%30.09 "Hg10 mi
2:20 AM55 °FClear.5 mph82%30.09 "Hg10 mi
1:50 AM55 °FClear.5 mph88%30.12 "Hg10 mi
1:20 AM55 °FPassing clouds.6 mph88%30.12 "HgN/A
12:50 AM55 °FCool.3 mph88%30.12 "HgN/A
12:20 AM57 °FClear.2 mph82%30.12 "Hg10 mi
11:50 PM
Sat, Jul 4
57 °FPassing clouds.2 mph82%30.12 "HgN/A
11:20 PM59 °FPassing clouds.3 mph77%30.12 "HgN/A
10:50 PM59 °FPassing clouds.6 mph77%30.12 "HgN/A
10:20 PM59 °FPassing clouds.5 mph82%30.12 "HgN/A
9:50 PM59 °FPassing clouds.6 mph82%30.12 "HgN/A
9:20 PM59 °FPassing clouds.9 mph82%30.12 "HgN/A
8:50 PM61 °FPassing clouds.10 mph77%30.12 "HgN/A
8:20 PM63 °FPassing clouds.12 mph68%30.12 "HgN/A
7:50 PM63 °FPartly sunny.14 mph68%30.12 "HgN/A
7:20 PM63 °FPartly sunny.13 mph73%30.12 "HgN/A
6:50 PM64 °FPassing clouds.15 mph68%30.12 "HgN/A
6:20 PM66 °FPassing clouds.16 mph64%30.12 "HgN/A
5:50 PM68 °FPassing clouds.15 mph60%30.12 "HgN/A
5:20 PM68 °FScattered clouds.17 mph56%30.12 "HgN/A
4:50 PM68 °FScattered clouds.15 mph60%30.12 "HgN/A
4:20 PM68 °FSunny.14 mph56%30.12 "Hg10 mi
3:50 PM70 °FSunny.13 mph57%30.09 "Hg10 mi
3:20 PM70 °FSunny.14 mph57%30.09 "Hg10 mi
2:50 PM72 °FPassing clouds.14 mph50%30.09 "HgN/A
2:20 PM72 °FPassing clouds.13 mph50%30.09 "HgN/A
1:50 PM70 °FPassing clouds.15 mph57%30.09 "HgN/A
1:20 PM68 °FPassing clouds.14 mph69%30.09 "HgN/A
12:50 PM68 °FPassing clouds.14 mph64%30.09 "HgN/A
12:20 PM68 °FScattered clouds.15 mph69%30.07 "HgN/A
11:50 AM66 °FPartly sunny.14 mph73%30.07 "HgN/A
11:20 AM68 °FScattered clouds.15 mph69%30.04 "HgN/A
10:50 AM66 °FScattered clouds.12 mph78%30.04 "HgN/A
10:20 AM64 °FBroken clouds.10 mph83%30.04 "HgN/A
Weather by CustomWeather, © 2015

See weather overviewHow to use our weather pages